Regional Weather Roundup
Issued by NWS

Home | Current Version | Previous Version | Text Only | Print | Product List | Glossary On
Versions: 1 2 3 4 5 6 7 8 9 10 11 12 13 14 15 16 17 18 19 20 21 22 23 24 25 26 27 28 29 30 31 32 33 34 35 36 37 38 39 40 41 42 43 44 45 46 47 48 49 50
000
ASUS44 KMEG 230210
RWRTN
TENNESSEE HOURLY STATE WEATHER ROUNDUP
NATIONAL WEATHER SERVICE MEMPHIS TN
900 PM CDT SAT JUL 22 2017

TNZ002-004-019-021-049-052-054-088>092-230300-
WEST TENNESSEE

CITY           SKY/WX    TMP DP  RH WIND       PRES   REMARKS
MEMPHIS INTL   CLOUDY    86  76  71 S8        29.92R HX  96
NWS MEMPHIS      N/A     88 N/A N/A MISG        N/A
JACKSON        PTCLDY    84  75  74 S7        29.91R HX  92
SOMERVILLE       N/A     84  75  74 S6        29.92R HX  92
COVINGTON      PTCLDY    84  77  79 SW3       29.90R HX  94
UNION CITY       N/A     84  77  79 S6        29.86S HX  94
BOLIVAR        CLEAR     81  73  78 VRB3      29.93R
PARIS          CLEAR     81  77  89 SW3       29.87S
HUNTINGDON     CLEAR     86  77  74 CALM      29.88S HX  97
LEXINGTON      MOCLDY    82  75  78 S3        29.92R
SELMER         CLEAR     81  73  78 VRB3      29.94R
SAVANNAH       CLEAR     79  72  78 CALM      29.93R
$$

TNZ008-025-027-028-033-062-065-066-230300-
NORTH MIDDLE TENNESSEE

CITY           SKY/WX    TMP DP  RH WIND       PRES   REMARKS
NASHVILLE      PTCLDY    88  73  61 SW5       29.90S HX  95
PORTLAND         N/A     82  77  83 CALM      29.90R HX  91
CLARKSVILLE    CLEAR     85  75  72 SW7       29.88R HX  93
SMYRNA         CLEAR     87  72  60 SW6       29.91R HX  93
COOKEVILLE     CLEAR     81  75  83 CALM      29.93S
GALLATIN       CLEAR     88  73  62 CALM      29.92R HX  96
CROSSVILLE     CLEAR     80  72  76 SW3       30.01R
$$

TNZ061-075-076-078-094-096-097-230300-
SOUTH MIDDLE TENNESSEE

CITY           SKY/WX    TMP DP  RH WIND       PRES   REMARKS
FAYETTEVILLE   PTCLDY    84  75  74 SW5       29.96S HX  92
TULLAHOMA        N/A     82  73  74 SW6       29.98R
WINCHESTER     CLEAR     84  73  70 CALM      29.97S HX  91
MCMINNVILLE    CLEAR     84  79  84 CALM      29.95S HX  96
COLUMBIA       PTCLDY    82  75  78 SW6       29.92R
SHELBYVILLE    CLEAR     84  75  74 SW6       29.94S HX  92
$$

TNZ017-018-042-046-047-230300-
NORTHEAST TENNESSEE

CITY           SKY/WX    TMP DP  RH WIND       PRES   REMARKS
TRI CITIES     PTCLDY    86  70  58 W5        29.96R HX  90
ELIZABETHTON   MOCLDY    77  72  83 CALM      29.97R
$$

TNZ012-013-036-069-073-074-230300-
CENTRAL EAST TENNESSEE

CITY           SKY/WX    TMP DP  RH WIND       PRES   REMARKS
KNOXVILLE      PTCLDY    84  71  65 SW8       29.93R
OAK RIDGE      CLEAR     86  75  69 CALM      29.94R HX  95
DOWNTOWN KNOXV   N/A     81  75  83 CALM      29.92R
GATLINBURG     CLEAR     86  68  54 SW6       29.93R
MORRISTOWN     PTCLDY    86  72  62 CALM      29.95R HX  92
JACKSBORO      CLEAR     79  75  89 CALM      29.98R
$$

TNZ083-085-099-230300-
SOUTHEAST TENNESSEE

CITY           SKY/WX    TMP DP  RH WIND       PRES   REMARKS
CHATTANOOGA    PTCLDY    87  73  62 S3        29.95R HX  94
DAYTON         MOCLDY    84  77  79 CALM      29.93R HX  94
$$

SKY/WX REPORTED AS FAIR MEANS FEW OR NO CLOUDS BELOW
12 THOUSAND FEET.




USA.gov is the U.S. government's official web portal to all federal, state and local government web resources and services.